AirNav   ProFlight Series 2 Aviation Headset
 
 1044 users online  

PS17 Marlboro Corporate Park Heliport
Kennett Square, Pennsylvania, USA

GOING TO KENNETT SQUARE?


FAA INFORMATION EFFECTIVE 18 JUNE 2020

Location

FAA Identifier: PS17
Lat/Long: 39-51-28.0000N 075-41-47.0000W
39-51.466667N 075-41.783333W
39.8577778,-75.6963889
(estimated)
Elevation: 385 ft. / 117 m
Variation: 12W (2000)
Time zone: UTC -4 (UTC -5 during Standard Time)
Zip code: 19348

Heliport Operations

Heliport use: Private use. Permission required prior to landing
Activation date: 08/2002
Control tower: no
ARTCC: NEW YORK CENTER
FSS: WILLIAMSPORT FLIGHT SERVICE STATION
Attendance: UNATNDD
Wind indicator: lighted
Segmented circle: no

Heliport Communications

WX AWOS-3T at OQN (10 nm NE): 121.4 ((610) 692-6190)
WX AWOS-3 at MQS (11 nm NW): 126.25 (610-384-6132)
WX ASOS at ILG (12 nm S): PHONE 302-328-1536

Nearby radio navigation aids

VOR radial/distance  VOR name  Freq  Var
MXEr207/3.8MODENA VORTAC113.2009W
DQOr349/11.5DUPONT VORTAC114.0010W
OODr316/22.5WOODSTOWN VORTAC112.8010W
PTWr205/22.7POTTSTOWN VORTAC116.5009W
LRPr129/31.5LANCASTER VOR/DME117.3009W
ENOr356/38.5SMYRNA VORTAC111.4009W
VCNr310/38.8CEDAR LAKE VOR/DME115.2010W

 
NDB name  Hdg/Dist  Freq  Var  ID
AMBLER242/24.827512WING .. -. --.
RAINBOW326/37.036311WRNB .-. -. -...

Heliport Services

Runway Information

Helipad H1

Dimensions: 50 x 50 ft. / 15 x 15 m
Surface: concrete/turf
Traffic pattern: leftleft

Heliport Ownership and Management from official FAA records

Ownership: Privately-owned
Owner: CHETTY BUILDERS INC
511 SCHOOLHOUSE RD STE 100
KENNTEE SQUARE, PA 19349
Phone 610-444-8880
Manager: CARL E. CHETTY
511 SCHOOLHOUSE RD STE 100
KENNETT SQUARE, PA 19348
Phone 610-444-8880

Heliport Operational Statistics

Aircraft based on the field: 1
Helicopters: 1
    

Additional Remarks

FOR CD CTC PHILADELPHIA APCH AT 800-354-9884.

Instrument Procedures

There are no published instrument procedures at PS17.

Some nearby airports with instrument procedures:

N57 - New Garden Airport (4 nm SW)
KOQN - Brandywine Regional Airport (10 nm NE)
KMQS - Chester County G O Carlson Airport (11 nm NW)
KILG - New Castle Airport (12 nm S)
7N7 - Spitfire Aerodrome (16 nm SE)
58M - Claremont Airport (19 nm SW)
 
Loc | Ops | Rwys | IFR | FBO | Links
Com | Nav | Svcs | Stats | Notes
Area around PS17 (Marlboro Corporate Park Heliport)
 
Road maps at: MapQuest Bing Google
 
Aerial photo
No photo
 
Sectional chart

 
Airport distance calculator
Flying to Marlboro Corporate Park Heliport? Find the distance to fly.

From to PS17

Sunrise and sunset
Times for 12-Jul-2020
 Local
(UTC-4)
 Zulu
(UTC)
Morning civil twilight05:1509:15
Sunrise05:4609:46
Sunset20:3100:31
Evening civil twilight21:0201:02

Current date and time
Zulu (UTC)  12-Jul-2020 18:08:55
Local (UTC-4)  12-Jul-2020 14:08:55
 
METAR
KOQN 
10nm NE 
121755Z AUTO 24006KT 10SM SCT050 SCT070 30/17 A2978 RMK AO2
KMQS 
11nm NW 
121755Z AUTO 00000G10KT 10SM FEW050 SCT060 SCT120 29/18 A2980 RMK AO2
KILG 
12nm S 
121751Z VRB06KT 10SM CLR 31/16 A2977 RMK AO2 SLP081 T03060161 10311 20239 58008
TAF
KILG 
12nm S 
121726Z 1218/1318 23008KT P6SM SCT050 BKN120 FM122200 22008KT P6SM VCSH BKN050 FM130000 21005KT P6SM -SHRA BKN045 FM130500 VRB03KT P6SM BKN060 FM131200 31006KT P6SM BKN200
NOTAMs
Click for the latest NOTAMs
NOTAMs are issued by the DoD/FAA and will open in a separate window not controlled by AirNav.

 

 
 

Would you like to see your business listed on this page?

 If your business provides an interesting product or service to pilots, flight crews, aircraft, or users of the Marlboro Corporate Park Heliport, you should consider listing it here.  To start the listing process, click on the button below
 
Add a business
 

Other Pages about Marlboro Corporate Park Heliport

Update a link
 
Copyright © AirNav, LLC. All rights reserved. Privacy Policy  Contact